Volver al catálogo

BD 1 03

ActivoNavegaciónGEO
NORAD 27813·PAYLOAD·🇨🇳 China

Lanzado May 24, 2003 desde Xichang Satellite Launch Center

Loading…

TLE

ActualizadoSource: Space-Track

Época: Sep 14, 2026, 21:06 UTC

1 27813U 03021A   26257.87944722 -.00000197  00000-0  00000-0 0  9990
2 27813  11.5477  40.3933 0017359 306.5507  60.5350  0.99768177 85209

Sigue BD 1 03 en tiempo real con AllMySat

Download on the App Store